Location: Observatorio Ernesto Juarez Davis
(29.2175°N, 110.7606°W)
Time: 02:13:35
(UTC-07:00)

Hubble Space Telescope - Pass Details

Date: 26 July 2019
Orbit: 536 x 540 km, 28.5° (Epoch: 23 August)

Event Time Altitude Azimuth Distance (km) Brightness Sun altitude
Exits shadow 05:02:05 10° 230° (SW) 1,777 2.8 -8.3°
Maximum altitude 05:05:54 37° 162° (SSE) 832 1.7 -7.6°
Drops below altitude 10° 05:09:44 10° 94° (E) 1,782 4.5 -6.8°
Sets 05:12:06 0° 86° (E) 2,673 5.8 -6.4°
